Overview Statistics Trail Chart Weather Telemetry Raw packets
 

This is the latest recevied weather packets stored in our database for station/object LU4EGV-13. If no packets are shown the sender has not sent any weather packets the latest 10 day(s).

<< 46 47 48 49 50 51 52 >>
Time Temp. Humidity Pressure Rain* Wind** Luminosity Snow
1787960688 12.78° C 77% 1010.9 hPa 0 mm - - -
1787960082 13.33° C 76% 1010.1 hPa 0 mm - - -
1787959476 13.33° C 75% 1009.7 hPa 0 mm - - -
1787958871 13.33° C 74% 1010 hPa 0 mm - - -
1787958584 13.89° C 73% 1009.8 hPa 0 mm - - -
1787957660 13.89° C 72% 1009.8 hPa 0 mm - - -
1787957052 13.89° C 70% 1009.8 hPa 0 mm - - -
1787956446 14.44° C 68% 1009.5 hPa 0 mm - - -
1787955839 14.44° C 67% 1009.5 hPa 0 mm - - -
1787955233 15° C 65% 1009.4 hPa 0 mm - - -
1787954628 15.56° C 62% 1009.1 hPa 0 mm - - -
1787954021 16.11° C 58% 1009.2 hPa 0 mm - - -
1787953414 16.67° C 52% 1009.2 hPa 0 mm - - -
1787952808 17.22° C 49% 1008.8 hPa 0 mm - - -
1787952203 18.33° C 48% 1008.7 hPa 0 mm - - -
1787951608 19.44° C 45% 1008.8 hPa 0 mm - - -
1787950989 20° C 44% 1008.9 hPa 0 mm - - -
1787950394 21.11° C 42% 1008.9 hPa 0 mm - - -
1787949783 21.11° C 41% 1008.7 hPa 0 mm - - -
1787949171 21.67° C 41% 1008.7 hPa 0 mm - - -
1787948565 21.67° C 40% 1008.4 hPa 0 mm - - -
1787947959 21.67° C 37% 1008.5 hPa 0 mm - - -
1787947353 21.67° C 38% 1008.3 hPa 0 mm - - -
1787946746 21.67° C 38% 1008.3 hPa 0 mm - - -
1787946141 21.67° C 38% 1008.2 hPa 0 mm - - -

* Rain latest hour (hover to see other rain measurements)
** Current wind speed in m/s (hover to see current wind gust speed)